Time,TemperatureF,DewpointF,PressureIn,WindDirection,WindDirectionDegrees,WindSpeedMPH,WindSpeedGustMPH,Humidity,HourlyPrecipIn,Conditions,Clouds,dailyrainin,SoftwareType,DateUTC
2013-08-19 00:00:00,71.0,-99.9,-100.00,SW,224,13.0,15.0,-999,-99.99,,,-99.99,,2013-08-19 06:00:00,
2013-08-19 00:42:00,71.0,-99.9,-100.00,SW,224,13.0,15.0,-999,-99.99,,,-99.99,,2013-08-19 06:42:00,
2013-08-19 00:52:00,71.0,-99.9,-100.00,SW,224,13.0,15.0,-999,-99.99,,,-99.99,,2013-08-19 06:52:00,
2013-08-19 01:00:00,70.0,-99.9,-100.00,SW,235,8.0,10.0,-999,-99.99,,,-99.99,,2013-08-19 07:00:00,
2013-08-19 01:42:00,70.0,-99.9,-100.00,SW,235,8.0,10.0,-999,-99.99,,,-99.99,,2013-08-19 07:42:00,
2013-08-19 01:52:00,70.0,-99.9,-100.00,SW,235,8.0,10.0,-999,-99.99,,,-99.99,,2013-08-19 07:52:00,
2013-08-19 02:00:00,70.0,-99.9,-100.00,SW,228,11.0,14.0,-999,-99.99,,,-99.99,,2013-08-19 08:00:00,
2013-08-19 02:42:00,70.0,-99.9,-100.00,SW,228,11.0,14.0,-999,-99.99,,,-99.99,,2013-08-19 08:42:00,
2013-08-19 02:52:00,70.0,-99.9,-100.00,SW,228,11.0,14.0,-999,-99.99,,,-99.99,,2013-08-19 08:52:00,
2013-08-19 03:00:00,67.0,-99.9,-100.00,SW,235,6.0,8.0,-999,-99.99,,,-99.99,,2013-08-19 09:00:00,
2013-08-19 03:43:00,67.0,-99.9,-100.00,SW,235,6.0,8.0,-999,-99.99,,,-99.99,,2013-08-19 09:43:00,
2013-08-19 03:53:00,67.0,-99.9,-100.00,SW,235,6.0,8.0,-999,-99.99,,,-99.99,,2013-08-19 09:53:00,
2013-08-19 04:00:00,66.0,-99.9,-100.00,SW,227,2.0,6.0,-999,-99.99,,,-99.99,,2013-08-19 10:00:00,
2013-08-19 04:43:00,66.0,-99.9,-100.00,SW,227,2.0,6.0,-999,-99.99,,,-99.99,,2013-08-19 10:43:00,
2013-08-19 04:52:00,66.0,-99.9,-100.00,SW,227,2.0,6.0,-999,-99.99,,,-99.99,,2013-08-19 10:52:00,
2013-08-19 05:00:00,65.0,-99.9,-100.00,SSW,213,2.0,3.0,-999,-99.99,,,-99.99,,2013-08-19 11:00:00,
2013-08-19 05:45:00,65.0,-99.9,-100.00,SSW,213,2.0,3.0,-999,-99.99,,,-99.99,,2013-08-19 11:45:00,
2013-08-19 05:52:00,65.0,-99.9,-100.00,SSW,213,2.0,3.0,-999,-99.99,,,-99.99,,2013-08-19 11:52:00,
2013-08-19 06:00:00,61.0,-99.9,-100.00,SW,216,7.0,7.0,-999,-99.99,,,-99.99,,2013-08-19 12:00:00,
2013-08-19 06:42:00,61.0,-99.9,-100.00,SW,216,7.0,7.0,-999,-99.99,,,-99.99,,2013-08-19 12:42:00,
2013-08-19 06:52:00,61.0,-99.9,-100.00,SW,216,7.0,7.0,-999,-99.99,,,-99.99,,2013-08-19 12:52:00,
2013-08-19 07:00:00,62.0,-99.9,-100.00,WSW,242,5.0,7.0,-999,-99.99,,,-99.99,,2013-08-19 13:00:00,
2013-08-19 07:42:00,62.0,-99.9,-100.00,WSW,242,5.0,7.0,-999,-99.99,,,-99.99,,2013-08-19 13:42:00,
2013-08-19 07:52:00,62.0,-99.9,-100.00,WSW,242,5.0,7.0,-999,-99.99,,,-99.99,,2013-08-19 13:52:00,
2013-08-19 11:00:00,84.0,-99.9,-100.00,SE,126,5.0,7.0,-999,-99.99,,,-99.99,,2013-08-19 17:00:00,
2013-08-19 11:49:00,84.0,-99.9,-100.00,SE,126,5.0,7.0,-999,-99.99,,,-99.99,,2013-08-19 17:49:00,
2013-08-19 11:57:00,84.0,-99.9,-100.00,SE,126,5.0,7.0,-999,-99.99,,,-99.99,,2013-08-19 17:57:00,
2013-08-19 12:00:00,-999.0,-99.9,-100.00,ENE,76,2.0,4.0,-999,-99.99,,,-99.99,,2013-08-19 18:00:00,
2013-08-19 12:50:00,-999.0,-99.9,-100.00,ENE,76,2.0,4.0,-999,-99.99,,,-99.99,,2013-08-19 18:50:00,
2013-08-19 13:00:00,91.0,-99.9,-100.00,ESE,120,3.0,6.0,-999,-99.99,,,-99.99,,2013-08-19 19:00:00,
2013-08-19 13:30:00,-999.0,-99.9,-100.00,ESE,120,3.0,6.0,-999,-99.99,,,-99.99,,2013-08-19 19:30:00,
2013-08-19 13:50:00,91.0,-99.9,-100.00,ESE,120,3.0,6.0,-999,-99.99,,,-99.99,,2013-08-19 19:50:00,
2013-08-19 13:59:00,91.0,-99.9,-100.00,ESE,120,3.0,6.0,-999,-99.99,,,-99.99,,2013-08-19 19:59:00,
2013-08-19 14:00:00,-999.0,-99.9,-100.00,ESE,104,9.0,11.0,-999,-99.99,,,-99.99,,2013-08-19 20:00:00,
2013-08-19 14:50:00,93.0,-99.9,-100.00,ESE,104,9.0,11.0,-999,-99.99,,,-99.99,,2013-08-19 20:50:00,
2013-08-19 15:00:00,94.0,-99.9,-100.00,ENE,73,6.0,8.0,-999,-99.99,,,-99.99,,2013-08-19 21:00:00,
2013-08-19 15:46:00,94.0,-99.9,-100.00,ENE,73,6.0,8.0,-999,-99.99,,,-99.99,,2013-08-19 21:46:00,
2013-08-19 15:55:00,94.0,-99.9,-100.00,ENE,73,6.0,8.0,-999,-99.99,,,-99.99,,2013-08-19 21:55:00,
2013-08-19 16:00:00,94.0,-99.9,-100.00,NNE,31,6.0,9.0,-999,-99.99,,,-99.99,,2013-08-19 22:00:00,
2013-08-19 16:44:00,94.0,-99.9,-100.00,NNE,31,6.0,9.0,-999,-99.99,,,-99.99,,2013-08-19 22:44:00,
2013-08-19 16:55:00,94.0,-99.9,-100.00,NNE,31,6.0,9.0,-999,-99.99,,,-99.99,,2013-08-19 22:55:00,
2013-08-19 17:00:00,93.0,-99.9,-100.00,NNE,27,10.0,13.0,-999,-99.99,,,-99.99,,2013-08-19 23:00:00,
2013-08-19 17:48:00,93.0,-99.9,-100.00,NNE,27,10.0,13.0,-999,-99.99,,,-99.99,,2013-08-19 23:48:00,
2013-08-19 17:55:00,93.0,-99.9,-100.00,NNE,27,10.0,13.0,-999,-99.99,,,-99.99,,2013-08-19 23:55:00,
2013-08-19 18:00:00,92.0,-99.9,-100.00,NNE,12,8.0,10.0,-999,-99.99,,,-99.99,,2013-08-20 00:00:00,
2013-08-19 18:24:00,92.0,-99.9,-100.00,NNE,12,8.0,10.0,-999,-99.99,,,-99.99,,2013-08-20 00:24:00,
2013-08-19 18:32:00,92.0,-99.9,-100.00,NNE,12,8.0,10.0,-999,-99.99,,,-99.99,,2013-08-20 00:32:00,
2013-08-19 18:42:00,92.0,-99.9,-100.00,NNE,12,8.0,10.0,-999,-99.99,,,-99.99,,2013-08-20 00:42:00,
2013-08-19 18:53:00,92.0,-99.9,-100.00,NNE,12,8.0,10.0,-999,-99.99,,,-99.99,,2013-08-20 00:53:00,
2013-08-19 19:00:00,89.0,-99.9,-100.00,North,2,6.0,8.0,-999,-99.99,,,-99.99,,2013-08-20 01:00:00,
2013-08-19 19:42:00,89.0,-99.9,-100.00,North,2,6.0,8.0,-999,-99.99,,,-99.99,,2013-08-20 01:42:00,
2013-08-19 19:52:00,89.0,-99.9,-100.00,North,2,6.0,8.0,-999,-99.99,,,-99.99,,2013-08-20 01:52:00,
2013-08-19 20:00:00,82.0,-99.9,-100.00,NNE,30,3.0,3.0,-999,-99.99,,,-99.99,,2013-08-20 02:00:00,
2013-08-19 20:42:00,82.0,-99.9,-100.00,NNE,30,3.0,3.0,-999,-99.99,,,-99.99,,2013-08-20 02:42:00,
2013-08-19 20:52:00,82.0,-99.9,-100.00,NNE,30,3.0,3.0,-999,-99.99,,,-99.99,,2013-08-20 02:52:00,
2013-08-19 21:00:00,78.0,-99.9,-100.00,SW,224,4.0,7.0,-999,-99.99,,,-99.99,,2013-08-20 03:00:00,
2013-08-19 21:43:00,78.0,-99.9,-100.00,SW,224,4.0,7.0,-999,-99.99,,,-99.99,,2013-08-20 03:43:00,
2013-08-19 21:54:00,78.0,-99.9,-100.00,SW,224,4.0,7.0,-999,-99.99,,,-99.99,,2013-08-20 03:54:00,
2013-08-19 22:00:00,78.0,-99.9,-100.00,SW,220,9.0,10.0,-999,-99.99,,,-99.99,,2013-08-20 04:00:00,
2013-08-19 22:43:00,78.0,-99.9,-100.00,SW,220,9.0,10.0,-999,-99.99,,,-99.99,,2013-08-20 04:43:00,
2013-08-19 22:54:00,78.0,-99.9,-100.00,SW,220,9.0,10.0,-999,-99.99,,,-99.99,,2013-08-20 04:54:00,
2013-08-19 23:00:00,75.0,-99.9,-100.00,SW,224,11.0,13.0,-999,-99.99,,,-99.99,,2013-08-20 05:00:00,
2013-08-19 23:43:00,75.0,-99.9,-100.00,SW,224,11.0,13.0,-999,-99.99,,,-99.99,,2013-08-20 05:43:00,
2013-08-19 23:52:00,75.0,-99.9,-100.00,SW,224,11.0,13.0,-999,-99.99,,,-99.99,,2013-08-20 05:52:00,